GALAXY 16 (G-16)

Last updated on Sat Apr 26 2025 00:02:40 GMT+0000 (Coordinated Universal Time)

1 29236U 06023A 25115.56003181 -.00000124 00000+0 00000+0 0 9997 2 29236 0.0192 224.7534 0002734 173.0815 278.5898 1.00271194 68785
UTC large
Height (km)
Speed (km/s)
/
Latitude / Longitude
Inclination (degrees)
Orbital Period (minutes)
Azimuth
Elevation
Range (km)
Doppler Factor

Next 0 passes for location: London (51.5072 / 0.1276)

Sorry there are no passes over London.